QPF
0.02 0.03 0.02 0.02 0.02 0.02 0.03 0.04 0.04 0.04 0.04 0.04 0.04 0.04 0.04 0.05 0.06 0.06 0.06 0.05 0.05 0.04 0.04 0.03 0.03 0.02 0.03 0.03 0.03 0.03 0.03 0.04 0.05 0.05 0.04 0.03 0.03 0.02 0.02 0.02 0.02 0.02 0.02
0.01 0.02 0.02 0.03 0.03 0.02 0.02 0.03 0.03 0.04 0.04 0.04 0.06 0.06 0.06 0.06 0.06 0.05 0.04 0.04 0.03 0.03 0.03 0.03 0.03 0.03 0.03 0.03 0.03 0.03 0.03 0.04 0.04 0.05 0.04 0.03 0.02 0.02 0.02 0.02 0.02 0.02 0.02
0.01 0.01 0.02 0.03 0.04 0.04 0.04 0.04 0.04 0.05 0.06 0.05 0.05 0.06 0.07 0.07 0.05 0.04 0.03 0.03 0.02 0.02 0.01 0.01 0.01 0.02 0.02 0.02 0.02 0.01 0.01 0.01 0.02 0.02 0.01 0.01 0.01 0.01 0.01 0.01 0.01 0.01 0.01
0.01 0.01 0.01 0.02 0.04 0.05 0.07 0.08 0.07 0.06 0.05 0.06 0.06 0.05 0.04 0.04 0.04 0.04 0.03 0.03 0.03 0.02 0.01 0.01 0.01 0.01 0.01 0.01 0.02 0.02 0.02 0.02 0.02 0.02 0.02 0.02 0.02 0.02 0.02 0.02 0.02 0.02 0.01
0.01 0.01 0.01 0.02 0.03 0.04 0.05 0.07 0.08 0.09 0.08 0.08 0.07 0.05 0.03 0.02 0.02 0.02 0.02 0.02 0.02 0.01 0.01 0.01 0.01 0.01 0.01 0.01 0.01 0.01 0.01 0.02 0.02 0.02 0.02 0.02 0.02 0.02 0.02 0.02 0.02 0.02 0.02
0.01 0.01 0.01 0.02 0.01 0.02 0.02 0.04 0.06 0.07 0.08 0.08 0.07 0.05 0.03 0.02 0.01 0.01 0.01 0.01 0.01 0.00 0.00 0.00 0.01 0.01 0.01 0.01 0.01 0.01 0.02 0.02 0.03 0.03 0.03 0.02 0.02 0.01 0.01 0.02 0.02 0.02 0.02
0.01 0.02 0.02 0.02 0.02 0.02 0.02 0.02 0.03 0.04 0.04 0.04 0.04 0.03 0.02 0.01 0.01 0.01 0.00 0.00 0.00 0.00 0.00 0.00 0.00 0.00 0.01 0.01 0.02 0.02 0.02 0.03 0.03 0.03 0.04 0.03 0.02 0.02 0.02 0.03 0.02 0.02 0.02
0.02 0.02 0.02 0.01 0.01 0.02 0.02 0.02 0.02 0.02 0.02 0.02 0.01 0.01 0.01 0.01 0.01 0.00 0.00 0.00 0.00 0.00 0.00 0.00 0.01 0.01 0.00 0.01 0.01 0.02 0.02 0.02 0.02 0.02 0.03 0.02 0.02 0.02 0.02 0.02 0.02 0.02 0.02
0.03 0.02 0.02 0.02 0.02 0.02 0.02 0.02 0.02 0.02 0.02 0.01 0.01 0.00 0.00 0.00 0.00 0.00 0.00 0.01 0.01 0.00 0.00 0.01 0.01 0.01 0.01 0.01 0.02 0.02 0.01 0.01 0.01 0.02 0.02 0.02 0.03 0.03 0.03 0.03 0.03 0.02 0.02
0.03 0.03 0.03 0.03 0.02 0.02 0.01 0.01 0.01 0.01 0.01 0.01 0.00 0.00 0.00 0.00 0.00 0.00 0.01 0.01 0.01 0.01 0.01 0.01 0.01 0.01 0.01 0.01 0.02 0.02 0.02 0.01 0.01 0.01 0.01 0.01 0.02 0.02 0.03 0.03 0.03 0.03 0.02
0.04 0.04 0.03 0.02 0.02 0.01 0.01 0.01 0.01 0.00 0.00 0.00 0.00 0.00 0.00 0.00 0.00 0.00 0.00 0.01 0.01 0.01 0.01 0.00 0.00 0.01 0.01 0.01 0.02 0.02 0.02 0.02 0.02 0.02 0.01 0.01 0.01 0.01 0.01 0.01 0.02 0.03 0.03
0.04 0.03 0.02 0.01 0.01 0.01 0.00 0.00 0.00 0.00 0.00 0.00 0.00 0.00 0.00 0.00 0.00 0.00 0.00 0.01 0.01 0.01 0.01 0.01 0.01 0.01 0.01 0.01 0.01 0.01 0.02 0.02 0.03 0.03 0.02 0.02 0.02 0.01 0.01 0.01 0.01 0.01 0.01
0.02 0.02 0.01 0.01 0.00 0.00 0.00 0.00 0.00 0.00 0.00 0.00 0.00 0.00 0.00 0.00 0.00 0.00 0.00 0.01 0.01 0.01 0.00 0.00 0.00 0.01 0.01 0.01 0.01 0.01 0.01 0.02 0.02 0.02 0.02 0.02 0.02 0.02 0.02 0.02 0.01 0.01 0.01
0.01 0.01 0.00 0.00 0.00 0.00 0.00 0.00 0.00 0.00 0.00 0.00 0.00 0.00 0.00 0.00 0.00 0.00 0.01 0.01 0.01 0.01 0.01 0.00 0.00 0.00 0.00 0.01 0.01 0.01 0.01 0.02 0.02 0.02 0.02 0.02 0.02 0.02 0.02 0.02 0.01 0.01 0.01
0.00 0.00 0.00 0.00 0.00 0.00 0.00 0.00 0.00 0.00 0.00 0.01 0.01 0.01 0.01 0.01 0.01 0.01 0.01 0.01 0.01 0.01 0.01 0.00 0.00 0.00 0.00 0.01 0.01 0.01 0.01 0.02 0.02 0.02 0.02 0.01 0.02 0.02 0.02 0.02 0.02 0.01 0.01
0.00 0.00 0.00 0.00 0.00 0.00 0.00 0.00 0.00 0.00 0.00 0.00 0.00 0.01 0.01 0.01 0.01 0.01 0.01 0.01 0.01 0.01 0.01 0.01 0.01 0.01 0.01 0.01 0.01 0.01 0.01 0.01 0.01 0.02 0.01 0.01 0.01 0.01 0.01 0.01 0.01 0.01 0.01
0.00 0.00 0.00 0.00 0.00 0.00 0.00 0.00 0.00 0.00 0.00 0.00 0.00 0.00 0.01 0.01 0.01 0.01 0.01 0.01 0.01 0.01 0.01 0.01 0.01 0.01 0.01 0.01 0.01 0.01 0.01 0.01 0.01 0.01 0.01 0.01 0.01 0.02 0.02 0.01 0.01 0.01 0.01
0.00 0.00 0.00 0.00 0.00 0.00 0.00 0.00 0.00 0.00 0.00 0.00 0.00 0.00 0.00 0.00 0.01 0.01 0.01 0.01 0.01 0.01 0.01 0.01 0.01 0.01 0.01 0.01 0.01 0.01 0.01 0.01 0.01 0.01 0.01 0.01 0.01 0.02 0.01 0.01 0.01 0.01 0.01
0.00 0.00 0.00 0.00 0.00 0.00 0.00 0.00 0.00 0.00 0.00 0.00 0.00 0.00 0.00 0.00 0.00 0.00 0.00 0.01 0.01 0.01 0.01 0.01 0.01 0.01 0.01 0.01 0.01 0.01 0.01 0.01 0.01 0.01 0.01 0.01 0.01 0.01 0.01 0.01 0.01 0.01 0.01
0.00 0.00 0.00 0.00 0.00 0.00 0.00 0.00 0.00 0.00 0.00 0.00 0.00 0.00 0.00 0.01 0.01 0.01 0.01 0.01 0.01 0.01 0.01 0.01 0.01 0.01 0.01 0.01 0.01 0.01 0.01 0.01 0.01 0.01 0.01 0.01 0.01 0.01 0.01 0.01 0.01 0.01 0.01
0.00 0.00 0.00 0.00 0.00 0.00 0.00 0.00 0.00 0.01 0.01 0.00 0.00 0.00 0.01 0.01 0.01 0.01 0.01 0.01 0.01 0.01 0.01 0.01 0.01 0.01 0.01 0.01 0.01 0.01 0.01 0.01 0.01 0.01 0.01 0.01 0.01 0.01 0.01 0.01 0.01 0.02 0.01
0.01 0.01 0.01 0.01 0.01 0.01 0.01 0.01 0.01 0.01 0.01 0.01 0.00 0.00 0.01 0.01 0.01 0.01 0.01 0.01 0.01 0.01 0.01 0.02 0.02 0.01 0.02 0.02 0.02 0.02 0.01 0.01 0.01 0.01 0.01 0.01 0.01 0.01 0.02 0.02 0.01 0.01 0.01
0.01 0.01 0.01 0.01 0.01 0.01 0.01 0.01 0.01 0.01 0.01 0.01 0.01 0.01 0.01 0.01 0.01 0.01 0.01 0.01 0.01 0.01 0.02 0.02 0.02 0.02 0.01 0.02 0.02 0.02 0.02 0.01 0.01 0.01 0.01 0.02 0.01 0.01 0.01 0.01 0.01 0.01 0.01
0.01 0.01 0.01 0.01 0.01 0.01 0.01 0.01 0.01 0.01 0.01 0.01 0.01 0.01 0.01 0.01 0.01 0.01 0.01 0.01 0.01 0.02 0.02 0.02 0.02 0.02 0.01 0.02 0.02 0.02 0.01 0.01 0.01 0.02 0.02 0.02 0.02 0.01 0.01 0.01 0.01 0.01 0.01
0.01 0.01 0.01 0.01 0.01 0.01 0.01 0.01 0.01 0.01 0.01 0.01 0.01 0.01 0.01 0.01 0.01 0.01 0.01 0.01 0.02 0.02 0.02 0.02 0.02 0.02 0.02 0.02 0.01 0.01 0.02 0.02 0.02 0.02 0.02 0.02 0.02 0.01 0.02 0.01 0.01 0.01 0.01
0.01 0.01 0.01 0.01 0.01 0.01 0.01 0.01 0.01 0.01 0.01 0.01 0.01 0.01 0.01 0.01 0.01 0.01 0.01 0.01 0.01 0.01 0.01 0.01 0.01 0.01 0.01 0.01 0.01 0.01 0.02 0.02 0.02 0.03 0.02 0.02 0.02 0.02 0.02 0.02 0.02 0.01 0.01
MSLP
1029.38 1029.88 1030.47 1031.08 1031.66 1032.15 1032.56 1032.87 1033.11 1033.29 1033.43 1033.54 1033.60 1033.61 1033.55 1033.41 1033.17 1032.87 1032.52 1032.15 1031.80 1031.50 1031.24 1031.02 1030.79 1030.51 1030.14 1029.63 1028.95 1028.12 1027.14 1026.06 1024.92 1023.77 1022.67 1021.62 1020.64 1019.72 1018.85 1018.00 1017.15 1016.29 1015.42
1028.96 1029.50 1030.13 1030.78 1031.40 1031.93 1032.38 1032.72 1032.99 1033.19 1033.34 1033.45 1033.50 1033.49 1033.40 1033.21 1032.93 1032.58 1032.19 1031.78 1031.41 1031.08 1030.80 1030.56 1030.33 1030.07 1029.71 1029.22 1028.56 1027.75 1026.78 1025.69 1024.53 1023.33 1022.15 1021.02 1019.93 1018.90 1017.92 1016.96 1016.02 1015.09 1014.18
1028.70 1029.27 1029.92 1030.58 1031.21 1031.76 1032.22 1032.58 1032.87 1033.09 1033.25 1033.36 1033.40 1033.37 1033.25 1033.03 1032.72 1032.33 1031.89 1031.45 1031.03 1030.66 1030.35 1030.08 1029.82 1029.53 1029.17 1028.67 1028.03 1027.22 1026.26 1025.18 1024.01 1022.79 1021.57 1020.37 1019.21 1018.09 1017.02 1015.97 1014.96 1013.97 1013.01
1028.56 1029.14 1029.78 1030.44 1031.05 1031.60 1032.05 1032.43 1032.73 1032.96 1033.14 1033.26 1033.31 1033.27 1033.14 1032.90 1032.56 1032.14 1031.67 1031.18 1030.71 1030.29 1029.92 1029.60 1029.29 1028.96 1028.56 1028.04 1027.39 1026.58 1025.63 1024.56 1023.40 1022.19 1020.96 1019.73 1018.54 1017.37 1016.24 1015.13 1014.06 1013.01 1012.01
1028.50 1029.07 1029.70 1030.32 1030.91 1031.42 1031.87 1032.25 1032.56 1032.82 1033.02 1033.16 1033.23 1033.20 1033.07 1032.82 1032.46 1032.02 1031.51 1030.98 1030.46 1029.98 1029.54 1029.15 1028.77 1028.37 1027.91 1027.36 1026.68 1025.87 1024.94 1023.89 1022.76 1021.58 1020.37 1019.16 1017.96 1016.79 1015.63 1014.49 1013.38 1012.29 1011.23
1028.48 1029.04 1029.63 1030.21 1030.75 1031.24 1031.67 1032.05 1032.38 1032.67 1032.90 1033.08 1033.17 1033.16 1033.03 1032.78 1032.41 1031.94 1031.40 1030.83 1030.25 1029.71 1029.20 1028.72 1028.26 1027.78 1027.26 1026.66 1025.96 1025.15 1024.23 1023.22 1022.14 1021.01 1019.85 1018.69 1017.53 1016.37 1015.22 1014.07 1012.93 1011.80 1010.69
1028.47 1029.01 1029.57 1030.10 1030.60 1031.06 1031.48 1031.86 1032.21 1032.53 1032.79 1033.00 1033.11 1033.11 1032.99 1032.73 1032.34 1031.85 1031.28 1030.67 1030.05 1029.44 1028.86 1028.31 1027.78 1027.23 1026.65 1026.00 1025.28 1024.47 1023.57 1022.61 1021.58 1020.52 1019.44 1018.35 1017.24 1016.12 1014.99 1013.83 1012.67 1011.50 1010.32
1028.47 1028.99 1029.51 1030.01 1030.48 1030.91 1031.32 1031.71 1032.07 1032.41 1032.69 1032.91 1033.03 1033.03 1032.89 1032.62 1032.21 1031.69 1031.10 1030.45 1029.79 1029.15 1028.52 1027.92 1027.33 1026.73 1026.10 1025.43 1024.69 1023.88 1023.02 1022.10 1021.14 1020.15 1019.14 1018.11 1017.06 1015.98 1014.87 1013.71 1012.52 1011.30 1010.05
1028.44 1028.97 1029.47 1029.94 1030.38 1030.80 1031.21 1031.60 1031.97 1032.31 1032.60 1032.81 1032.91 1032.88 1032.71 1032.40 1031.97 1031.42 1030.81 1030.15 1029.48 1028.82 1028.18 1027.55 1026.94 1026.32 1025.67 1024.98 1024.24 1023.45 1022.61 1021.74 1020.83 1019.90 1018.95 1017.97 1016.96 1015.90 1014.79 1013.62 1012.39 1011.11 1009.79
1028.39 1028.92 1029.41 1029.88 1030.32 1030.74 1031.15 1031.54 1031.91 1032.24 1032.50 1032.67 1032.73 1032.65 1032.43 1032.07 1031.60 1031.04 1030.42 1029.76 1029.11 1028.47 1027.85 1027.25 1026.64 1026.03 1025.39 1024.70 1023.97 1023.20 1022.38 1021.53 1020.66 1019.76 1018.83 1017.88 1016.88 1015.82 1014.69 1013.48 1012.21 1010.86 1009.47
1028.28 1028.83 1029.34 1029.81 1030.27 1030.70 1031.11 1031.51 1031.86 1032.16 1032.38 1032.50 1032.48 1032.34 1032.05 1031.65 1031.14 1030.57 1029.96 1029.34 1028.74 1028.16 1027.59 1027.04 1026.49 1025.91 1025.29 1024.63 1023.91 1023.14 1022.32 1021.48 1020.60 1019.70 1018.77 1017.81 1016.78 1015.69 1014.52 1013.27 1011.93 1010.53 1009.08
1028.09 1028.67 1029.20 1029.71 1030.19 1030.65 1031.08 1031.47 1031.81 1032.07 1032.23 1032.28 1032.19 1031.96 1031.62 1031.17 1030.65 1030.09 1029.52 1028.96 1028.44 1027.94 1027.47 1026.99 1026.51 1025.98 1025.40 1024.75 1024.03 1023.25 1022.42 1021.56 1020.65 1019.72 1018.75 1017.74 1016.66 1015.52 1014.29 1012.98 1011.59 1010.13 1008.63
1027.82 1028.42 1028.99 1029.54 1030.06 1030.55 1031.00 1031.40 1031.72 1031.94 1032.05 1032.03 1031.87 1031.58 1031.19 1030.72 1030.20 1029.68 1029.17 1028.70 1028.27 1027.88 1027.51 1027.13 1026.71 1026.24 1025.69 1025.04 1024.32 1023.51 1022.65 1021.73 1020.77 1019.78 1018.75 1017.67 1016.53 1015.32 1014.03 1012.66 1011.22 1009.72 1008.19
1027.45 1028.08 1028.70 1029.29 1029.85 1030.38 1030.85 1031.26 1031.57 1031.76 1031.83 1031.76 1031.55 1031.23 1030.82 1030.35 1029.87 1029.41 1028.99 1028.62 1028.31 1028.02 1027.75 1027.45 1027.09 1026.65 1026.11 1025.46 1024.70 1023.86 1022.94 1021.96 1020.94 1019.88 1018.78 1017.63 1016.43 1015.15 1013.80 1012.38 1010.90 1009.37 1007.83
1027.01 1027.67 1028.31 1028.95 1029.55 1030.12 1030.62 1031.04 1031.36 1031.54 1031.59 1031.50 1031.28 1030.95 1030.56 1030.14 1029.72 1029.34 1029.01 1028.75 1028.54 1028.35 1028.15 1027.91 1027.58 1027.15 1026.60 1025.92 1025.12 1024.22 1023.24 1022.20 1021.11 1020.00 1018.84 1017.64 1016.38 1015.06 1013.68 1012.23 1010.72 1009.19 1007.64
1026.52 1027.19 1027.87 1028.54 1029.18 1029.78 1030.31 1030.76 1031.09 1031.29 1031.34 1031.27 1031.07 1030.78 1030.44 1030.08 1029.75 1029.47 1029.24 1029.07 1028.93 1028.81 1028.65 1028.43 1028.10 1027.65 1027.05 1026.32 1025.47 1024.51 1023.49 1022.40 1021.28 1020.13 1018.95 1017.73 1016.45 1015.12 1013.72 1012.26 1010.75 1009.21 1007.68
1026.01 1026.70 1027.39 1028.08 1028.75 1029.38 1029.95 1030.42 1030.77 1031.00 1031.09 1031.05 1030.91 1030.69 1030.43 1030.17 1029.94 1029.74 1029.60 1029.50 1029.41 1029.31 1029.16 1028.91 1028.54 1028.03 1027.38 1026.59 1025.69 1024.70 1023.64 1022.54 1021.42 1020.28 1019.12 1017.91 1016.66 1015.34 1013.96 1012.51 1011.01 1009.48 1007.94
1025.51 1026.20 1026.90 1027.60 1028.29 1028.94 1029.52 1030.02 1030.41 1030.67 1030.82 1030.85 1030.79 1030.66 1030.50 1030.34 1030.20 1030.09 1030.01 1029.95 1029.88 1029.76 1029.56 1029.26 1028.82 1028.24 1027.52 1026.68 1025.74 1024.73 1023.68 1022.61 1021.53 1020.45 1019.34 1018.20 1017.01 1015.74 1014.40 1012.98 1011.49 1009.97 1008.43
1025.00 1025.69 1026.39 1027.10 1027.79 1028.44 1029.04 1029.56 1029.98 1030.30 1030.50 1030.62 1030.65 1030.62 1030.57 1030.51 1030.46 1030.42 1030.38 1030.33 1030.24 1030.07 1029.80 1029.41 1028.88 1028.22 1027.43 1026.55 1025.59 1024.60 1023.59 1022.59 1021.60 1020.61 1019.61 1018.57 1017.47 1016.28 1015.00 1013.62 1012.15 1010.64 1009.09
1024.46 1025.14 1025.84 1026.54 1027.23 1027.88 1028.48 1029.01 1029.47 1029.83 1030.11 1030.30 1030.43 1030.52 1030.57 1030.61 1030.63 1030.64 1030.63 1030.56 1030.42 1030.18 1029.82 1029.33 1028.71 1027.97 1027.13 1026.22 1025.28 1024.33 1023.40 1022.50 1021.63 1020.77 1019.90 1018.99 1017.99 1016.90 1015.69 1014.36 1012.93 1011.42 1009.87
1023.86 1024.53 1025.22 1025.90 1026.57 1027.20 1027.80 1028.34 1028.82 1029.23 1029.58 1029.86 1030.09 1030.28 1030.44 1030.56 1030.65 1030.70 1030.69 1030.60 1030.40 1030.08 1029.63 1029.04 1028.33 1027.52 1026.65 1025.73 1024.82 1023.95 1023.12 1022.34 1021.61 1020.90 1020.17 1019.39 1018.52 1017.53 1016.40 1015.13 1013.74 1012.25 1010.70
1023.16 1023.82 1024.48 1025.13 1025.77 1026.39 1026.97 1027.52 1028.02 1028.47 1028.88 1029.25 1029.58 1029.87 1030.13 1030.34 1030.49 1030.57 1030.56 1030.43 1030.18 1029.78 1029.24 1028.57 1027.79 1026.94 1026.04 1025.14 1024.28 1023.49 1022.77 1022.12 1021.53 1020.97 1020.39 1019.74 1018.99 1018.11 1017.06 1015.87 1014.53 1013.08 1011.56
1022.35 1022.97 1023.60 1024.21 1024.82 1025.40 1025.97 1026.52 1027.04 1027.54 1028.01 1028.46 1028.89 1029.28 1029.63 1029.92 1030.13 1030.25 1030.24 1030.09 1029.78 1029.33 1028.72 1027.99 1027.16 1026.27 1025.37 1024.50 1023.70 1022.99 1022.38 1021.85 1021.39 1020.96 1020.51 1019.99 1019.35 1018.57 1017.63 1016.52 1015.26 1013.88 1012.42
1021.43 1022.01 1022.59 1023.15 1023.72 1024.27 1024.82 1025.37 1025.91 1026.45 1026.99 1027.53 1028.04 1028.53 1028.97 1029.34 1029.61 1029.76 1029.76 1029.60 1029.27 1028.77 1028.11 1027.34 1026.48 1025.59 1024.70 1023.86 1023.12 1022.48 1021.96 1021.53 1021.18 1020.86 1020.52 1020.10 1019.58 1018.90 1018.06 1017.06 1015.90 1014.63 1013.28
1020.46 1020.98 1021.49 1022.00 1022.52 1023.04 1023.58 1024.13 1024.69 1025.28 1025.88 1026.49 1027.10 1027.67 1028.19 1028.64 1028.96 1029.15 1029.18 1029.01 1028.67 1028.15 1027.47 1026.68 1025.81 1024.92 1024.05 1023.25 1022.55 1021.98 1021.52 1021.18 1020.90 1020.67 1020.41 1020.09 1019.67 1019.10 1018.38 1017.50 1016.48 1015.34 1014.13
1019.49 1019.93 1020.38 1020.83 1021.31 1021.80 1022.32 1022.88 1023.47 1024.10 1024.76 1025.44 1026.12 1026.77 1027.36 1027.87 1028.25 1028.47 1028.52 1028.36 1028.02 1027.49 1026.81 1026.02 1025.16 1024.29 1023.44 1022.68 1022.02 1021.50 1021.09 1020.80 1020.58 1020.41 1020.22 1019.98 1019.64 1019.18 1018.59 1017.85 1016.98 1016.02 1014.98
Thickness
5480 5479 5476 5474 5472 5469 5467 5463 5460 5457 5454 5450 5447 5443 5439 5435 5431 5427 5423 5418 5414 5410 5406 5402 5398 5394 5390 5386 5381 5376 5371 5367 5364 5365 5360 5356 5350 5345 5341 5337 5334 5331 5329
5474 5472 5470 5467 5464 5462 5459 5455 5452 5448 5445 5441 5437 5434 5429 5424 5420 5415 5411 5407 5402 5398 5394 5390 5386 5381 5377 5373 5368 5363 5358 5353 5349 5347 5345 5341 5336 5331 5326 5323 5319 5316 5313
5467 5465 5462 5460 5457 5454 5451 5447 5443 5440 5436 5431 5427 5423 5418 5413 5409 5404 5399 5395 5390 5386 5382 5377 5373 5369 5365 5360 5355 5350 5345 5340 5335 5331 5329 5325 5321 5316 5312 5309 5305 5301 5298
5460 5458 5456 5453 5450 5447 5443 5439 5435 5431 5427 5422 5417 5412 5408 5403 5398 5393 5389 5384 5380 5375 5370 5365 5361 5357 5353 5348 5344 5338 5333 5328 5322 5317 5313 5309 5305 5302 5296 5293 5292 5288 5284
5454 5451 5449 5446 5443 5439 5435 5431 5427 5423 5418 5413 5408 5403 5397 5392 5388 5383 5379 5374 5370 5365 5359 5355 5350 5346 5341 5336 5331 5327 5321 5315 5310 5304 5300 5296 5292 5287 5283 5278 5275 5273 5270
5448 5445 5443 5439 5435 5431 5427 5423 5418 5414 5408 5403 5398 5392 5387 5382 5378 5374 5369 5364 5359 5355 5350 5345 5340 5335 5330 5325 5320 5315 5309 5303 5298 5292 5288 5283 5279 5273 5268 5262 5258 5256 5256
5442 5439 5435 5431 5427 5423 5419 5414 5409 5404 5399 5393 5388 5383 5378 5373 5369 5365 5360 5355 5350 5345 5340 5335 5330 5325 5319 5314 5309 5304 5298 5292 5286 5280 5275 5271 5266 5261 5255 5250 5244 5239 5236
5436 5432 5428 5424 5420 5415 5410 5405 5400 5395 5390 5385 5380 5374 5369 5365 5360 5356 5351 5346 5341 5336 5330 5325 5319 5313 5308 5302 5298 5293 5288 5282 5276 5271 5265 5260 5254 5248 5242 5237 5231 5227 5223
5429 5425 5421 5417 5412 5407 5402 5397 5392 5387 5382 5376 5371 5365 5360 5356 5351 5347 5342 5337 5332 5327 5321 5314 5308 5302 5297 5291 5286 5282 5277 5272 5266 5260 5255 5249 5243 5237 5230 5225 5218 5212 5210
5423 5419 5414 5409 5404 5399 5394 5389 5384 5378 5373 5367 5362 5356 5351 5347 5343 5338 5332 5327 5323 5318 5311 5304 5298 5291 5286 5280 5274 5270 5266 5262 5256 5250 5244 5239 5233 5226 5219 5212 5205 5198 5193
5416 5411 5406 5401 5396 5391 5386 5380 5375 5369 5363 5357 5352 5348 5343 5338 5334 5329 5323 5316 5311 5306 5300 5294 5288 5281 5275 5270 5264 5259 5255 5250 5244 5238 5233 5228 5222 5216 5209 5201 5194 5187 5182
5408 5403 5398 5393 5388 5383 5376 5371 5365 5359 5353 5348 5343 5338 5334 5329 5324 5319 5313 5307 5301 5295 5289 5284 5277 5271 5266 5260 5255 5249 5244 5238 5232 5226 5221 5217 5211 5206 5200 5193 5185 5178 5172
5399 5394 5390 5384 5378 5373 5367 5361 5355 5349 5343 5339 5333 5329 5326 5321 5316 5310 5304 5298 5292 5285 5279 5274 5267 5262 5256 5250 5244 5239 5232 5226 5220 5215 5211 5206 5201 5195 5189 5184 5178 5172 5166
5390 5385 5380 5374 5369 5363 5358 5352 5346 5340 5334 5329 5325 5321 5317 5311 5306 5301 5295 5289 5283 5276 5270 5264 5258 5251 5245 5240 5233 5227 5221 5215 5209 5205 5200 5196 5190 5185 5179 5174 5169 5164 5159
5381 5375 5370 5365 5359 5354 5348 5342 5337 5333 5327 5322 5317 5311 5306 5302 5298 5292 5285 5279 5273 5266 5259 5251 5246 5240 5234 5229 5223 5217 5211 5205 5200 5195 5190 5185 5180 5176 5171 5165 5159 5154 5148
5371 5366 5360 5354 5349 5343 5338 5333 5328 5323 5318 5313 5308 5302 5297 5293 5288 5282 5276 5269 5263 5255 5247 5240 5235 5230 5224 5219 5213 5208 5202 5197 5191 5186 5181 5176 5171 5166 5162 5156 5150 5145 5141
5361 5356 5350 5344 5338 5331 5325 5320 5317 5313 5307 5302 5297 5292 5287 5283 5277 5272 5265 5259 5252 5244 5236 5231 5226 5221 5215 5210 5204 5199 5194 5189 5183 5177 5172 5167 5163 5158 5153 5148 5143 5138 5135
5351 5345 5339 5333 5327 5320 5314 5309 5303 5299 5294 5291 5286 5281 5276 5271 5266 5261 5254 5247 5240 5234 5227 5222 5217 5212 5207 5202 5196 5191 5186 5180 5175 5169 5164 5159 5154 5149 5145 5140 5136 5131 5127
5341 5335 5329 5322 5316 5309 5303 5296 5291 5285 5281 5277 5273 5269 5264 5258 5254 5248 5242 5235 5229 5224 5219 5214 5209 5204 5199 5194 5188 5183 5177 5172 5167 5161 5156 5151 5146 5141 5137 5133 5129 5125 5121
5331 5325 5318 5311 5304 5297 5291 5284 5278 5273 5268 5263 5259 5255 5251 5245 5241 5237 5232 5226 5220 5216 5211 5206 5201 5196 5191 5185 5180 5175 5169 5164 5159 5154 5149 5145 5140 5135 5131 5127 5122 5118 5115
5320 5314 5306 5299 5292 5286 5279 5272 5266 5261 5256 5252 5248 5244 5240 5234 5230 5225 5221 5217 5212 5208 5203 5198 5192 5187 5182 5177 5172 5167 5162 5157 5152 5148 5143 5138 5133 5129 5125 5120 5116 5112 5108
5309 5302 5294 5287 5280 5274 5267 5261 5255 5249 5245 5240 5236 5232 5228 5222 5218 5214 5210 5206 5202 5198 5194 5189 5184 5179 5174 5169 5165 5160 5155 5151 5146 5142 5137 5132 5128 5123 5119 5115 5111 5106 5103
5296 5289 5282 5275 5269 5263 5256 5250 5244 5239 5233 5228 5223 5219 5214 5210 5206 5202 5198 5194 5190 5187 5183 5179 5174 5170 5166 5161 5157 5152 5148 5145 5141 5136 5131 5127 5123 5119 5114 5110 5105 5101 5098
5284 5277 5271 5264 5257 5251 5245 5239 5234 5228 5223 5218 5213 5208 5203 5199 5194 5191 5187 5183 5179 5175 5171 5168 5165 5161 5158 5153 5149 5146 5142 5138 5135 5131 5127 5123 5119 5115 5110 5105 5101 5097 5093
5272 5266 5259 5253 5246 5240 5234 5229 5223 5218 5212 5208 5203 5198 5193 5188 5184 5179 5176 5172 5168 5165 5161 5158 5155 5151 5148 5145 5142 5139 5136 5133 5130 5126 5122 5119 5115 5111 5106 5102 5098 5093 5090
5261 5255 5248 5242 5236 5230 5224 5219 5213 5208 5202 5197 5192 5187 5182 5178 5174 5170 5166 5162 5158 5155 5152 5149 5146 5143 5140 5138 5135 5132 5130 5128 5125 5122 5118 5115 5111 5107 5103 5099 5095 5091 5087